Vertical_Velocity
-2 -5 -3 -5 -5 -2 -3 0 -1 3 2 -0 1 -0 -3 0 -0 -0 4 5 5 1 -2 1 3 -4 -2 1 -1 1 1 -1 -1 1 -0 -3 -0 2 0 1 -3 -2 -3
-0 -2 -3 -1 -3 -3 -4 -2 -2 0 -0 3 5 -1 0 -0 -0 -1 1 3 2 -0 0 -1 2 -2 2 0 0 -1 4 3 -3 -4 7 -3 -4 -4 -1 -1 1 -0 -5
-6 -3 -3 -2 -0 -3 -3 -3 -0 -2 -1 -0 -1 3 3 -1 -2 -2 -6 -2 -2 -1 0 -3 -1 0 6 -3 3 -2 1 0 4 4 -2 -1 -9 3 -2 2 -0 -1 -2
0 -5 -3 1 -2 -1 -3 -1 -1 -1 -1 -1 -2 -1 1 -1 10 5 5 1 2 3 2 2 -2 4 4 -2 -3 5 -2 4 -8 10 1 -5 -2 2 -7 1 1 -0 -2
-3 -2 -3 -2 1 0 1 -1 -1 -2 -1 -3 -3 -3 -4 3 3 1 2 3 0 3 4 -0 2 2 2 1 -1 1 -0 2 4 1 3 2 0 -1 -1 -1 5 -1 3
-1 -3 -0 1 -1 -1 -5 -3 -2 2 0 -4 -0 -0 2 5 -1 2 -1 -0 5 2 3 4 4 3 5 3 3 1 4 3 -3 2 -0 -5 -4 -0 1 3 5 12 -1
-2 -0 -1 -2 1 5 3 4 6 7 5 0 -0 0 3 -0 2 5 5 11 7 -0 -2 3 0 -1 2 -2 -1 2 -6 2 1 0 -0 -3 2 2 3 -2 -5 -1 -3
-2 -0 -1 -1 3 2 1 -4 -2 2 1 1 3 1 2 -1 0 2 3 1 3 8 9 1 7 3 5 4 4 -8 1 -6 1 4 4 3 -1 -4 -14 -4 6 -4 -1
0 -2 1 1 -1 -1 0 0 -2 -0 -2 -1 1 2 5 -1 -3 1 4 -2 1 -1 -1 9 1 6 6 2 6 -1 -2 -8 -7 -1 -2 -1 2 -3 2 -2 -8 4 -1
5 4 -0 -3 1 1 -4 -3 0 4 -1 -7 -8 -6 -5 -1 -1 -2 -4 1 0 4 7 1 3 2 1 3 -1 -3 4 -0 4 -4 -3 -1 6 -4 2 6 -0 5 -1
-8 -14 -8 -4 -5 -4 -3 -4 -1 1 1 1 -2 2 5 3 3 -2 -1 -5 -0 1 4 13 0 -2 -0 -3 -3 2 5 2 -1 8 -3 -1 1 3 -1 6 -1 4 -3
2 6 7 1 3 -1 -8 -5 1 -2 0 -1 4 4 -1 -2 -4 -7 2 3 -7 -3 3 10 15 11 -0 7 3 2 -1 1 3 5 -2 2 -1 -2 3 -4 7 -0 -7
9 6 6 4 -0 -0 1 5 4 -7 -1 -0 -3 -1 6 2 2 -0 -4 6 4 2 -1 -1 -2 7 7 1 2 0 0 -4 -0 1 -2 2 -0 -3 -1 9 -2 10 -23
3 3 4 2 4 2 5 -0 5 1 7 6 -1 -3 2 3 4 6 3 2 1 5 -7 -9 -9 -6 -4 -6 -1 -3 1 -0 -1 -0 -3 3 1 -1 7 23 -3 0 13
2 -4 -2 1 -1 -4 1 -2 4 1 -3 3 5 0 4 3 7 -6 -3 -1 10 2 2 -0 1 3 3 1 1 3 2 4 3 3 1 13 3 -1 -6 8 11 -5 1
-0 5 -1 1 -2 -5 -4 -4 4 0 -7 4 11 3 -3 0 2 2 7 7 9 -2 3 3 4 10 6 4 2 2 6 4 -3 10 -4 12 19 13 23 10 51 3 30
-0 -0 -2 -3 -1 -4 -2 -10 -5 0 -2 6 -3 -4 -19 -10 -2 -6 -13 5 -7 11 2 -0 5 12 14 3 2 27 4 21 7 -1 -4 -11 6 -2 -10 -1 -0 2 -5
-2 -0 -2 -0 -3 0 -0 -3 -3 -7 -4 2 3 3 -4 -6 -13 -2 9 26 18 30 8 23 3 2 -3 2 11 17 0 -0 -5 -16 -22 -19 -7 -10 -9 -15 -17 -12 -13
-0 -1 -1 -3 -3 -1 4 3 10 -1 5 -7 1 7 29 18 0 -11 16 1 -2 5 8 14 4 8 1 -2 1 5 3 -2 -7 -7 -2 -1 1 1 4 -0 -3 -3 -7
-3 -2 -1 -2 1 -2 -2 -2 3 2 3 -2 -1 3 -0 0 1 10 18 7 9 5 3 2 -1 -0 -1 0 5 4 5 5 4 -4 -1 1 2 3 -7 -5 -8 -1 -1
-3 -2 -1 1 1 0 -3 1 4 3 -4 -2 0 1 0 2 -0 -0 -2 -4 -4 -3 0 -0 2 1 2 3 -1 1 2 1 3 3 -1 -2 -3 -4 -3 -3 -0 0 -1
-2 1 2 0 2 1 2 1 2 0 -1 -1 0 2 2 3 3 2 1 0 -0 0 0 1 -0 1 1 -0 -4 -1 2 1 1 2 1 2 -1 1 0 -1 -0 -0 4
-2 -2 -2 2 1 -0 1 -0 4 1 0 -1 2 1 -0 -0 1 1 0 1 1 2 3 2 1 0 1 4 6 4 -1 -1 -1 2 -1 -1 -0 2 4 3 5 4 5
0 2 1 -0 -1 -0 2 2 2 1 1 1 1 2 2 1 0 0 0 0 -0 -1 -2 -1 0 1 2 2 1 -1 -1 -0 -1 1 1 0 -3 -3 -6 -3 -5 -1 -0
1 1 -1 0 -0 -0 -0 -0 -0 -1 -1 -0 -0 -1 -1 -1 -0 -1 -1 -1 -1 -1 -2 -3 -2 -2 -2 -3 -1 -1 -2 1 -1 -1 -2 2 2 1 -0 4 0 -4 -4
-2 -1 -0 1 1 1 1 1 0 -0 0 0 -1 -1 -1 -1 -1 -2 -2 -2 -1 -2 -2 -2 -2 -1 -4 -3 -2 -1 -1 -2 -2 -3 -4 -3 -1 -3 0 -1 -5 -3 -4
Height
3061 3061 3060 3061 3064 3066 3070 3074 3078 3082 3085 3088 3092 3095 3099 3105 3109 3114 3120 3124 3127 3131 3135 3139 3141 3143 3146 3149 3151 3154 3156 3159 3160 3161 3162 3163 3164 3166 3168 3169 3171 3172 3172
3054 3053 3052 3050 3050 3054 3055 3060 3064 3068 3072 3075 3079 3082 3087 3091 3097 3103 3108 3113 3118 3122 3127 3130 3134 3137 3139 3141 3144 3146 3149 3152 3154 3157 3159 3159 3161 3161 3163 3165 3167 3168 3169
3045 3044 3043 3042 3040 3041 3044 3046 3050 3054 3057 3061 3065 3068 3072 3076 3082 3087 3094 3101 3107 3112 3118 3122 3126 3129 3131 3134 3138 3140 3144 3147 3149 3151 3153 3154 3153 3158 3158 3161 3162 3163 3164
3036 3032 3031 3031 3030 3030 3032 3034 3038 3041 3044 3048 3051 3054 3058 3061 3069 3075 3081 3089 3096 3102 3107 3112 3118 3122 3124 3126 3131 3134 3137 3139 3142 3145 3147 3147 3150 3152 3153 3155 3157 3158 3159
3022 3019 3018 3017 3018 3018 3020 3023 3026 3030 3034 3037 3039 3043 3046 3050 3055 3061 3067 3075 3083 3089 3096 3101 3107 3112 3116 3119 3123 3126 3127 3131 3135 3137 3140 3142 3143 3145 3148 3149 3152 3152 3154
3011 3008 3007 3006 3005 3008 3010 3013 3016 3019 3023 3026 3028 3031 3035 3038 3041 3046 3051 3059 3068 3075 3082 3089 3095 3101 3106 3110 3114 3118 3119 3122 3127 3128 3132 3133 3136 3140 3142 3143 3145 3146 3147
3003 3000 2997 2996 2996 2998 3001 3003 3005 3008 3013 3016 3019 3022 3025 3027 3029 3033 3038 3045 3053 3060 3069 3077 3083 3089 3096 3102 3107 3108 3112 3113 3116 3120 3124 3126 3129 3133 3134 3135 3136 3137 3139
2999 2994 2991 2989 2989 2992 2994 2998 3001 3004 3005 3008 3011 3014 3017 3019 3021 3022 3025 3031 3039 3049 3057 3064 3072 3079 3086 3092 3097 3102 3104 3105 3108 3113 3115 3118 3121 3123 3124 3128 3129 3129 3129
2998 2991 2988 2986 2985 2986 2989 2992 2996 2998 2999 3000 3001 3004 3007 3010 3013 3015 3018 3021 3028 3035 3044 3055 3063 3069 3076 3083 3088 3092 3095 3100 3104 3106 3108 3109 3113 3111 3112 3115 3119 3121 3121
2994 2991 2986 2984 2983 2983 2985 2987 2989 2990 2991 2993 2995 2997 2998 3002 3004 3006 3008 3013 3018 3025 3033 3043 3052 3060 3067 3073 3078 3083 3087 3089 3093 3099 3100 3102 3104 3104 3105 3107 3108 3111 3111
2992 2989 2987 2983 2981 2981 2982 2982 2983 2982 2984 2985 2987 2988 2990 2993 2996 2998 3001 3004 3010 3015 3023 3033 3041 3050 3057 3063 3068 3073 3078 3081 3085 3089 3091 3092 3095 3096 3095 3097 3099 3101 3103
2988 2984 2979 2976 2974 2973 2975 2976 2976 2976 2978 2979 2979 2981 2984 2986 2989 2991 2994 2998 3002 3008 3016 3024 3031 3039 3046 3053 3059 3064 3069 3073 3075 3079 3082 3083 3085 3085 3086 3086 3088 3092 3094
2990 2986 2982 2975 2970 2969 2967 2967 2968 2968 2969 2970 2971 2975 2978 2980 2982 2985 2989 2992 2996 3003 3011 3017 3022 3029 3037 3044 3050 3056 3060 3064 3067 3071 3072 3073 3075 3075 3076 3076 3076 3077 3077
2997 2993 2987 2980 2976 2973 2969 2967 2961 2959 2960 2962 2964 2969 2973 2976 2979 2982 2985 2989 2993 3000 3008 3013 3018 3025 3031 3037 3042 3047 3051 3054 3055 3058 3059 3063 3064 3064 3065 3063 3060 3064 3065
3003 2999 2994 2989 2985 2982 2977 2969 2958 2948 2950 2957 2962 2966 2969 2971 2975 2979 2982 2986 2990 2995 3001 3007 3012 3018 3023 3028 3033 3037 3040 3043 3046 3049 3050 3053 3052 3051 3051 3053 3055 3055 3055
3009 3005 3001 2997 2993 2988 2982 2974 2963 2954 2956 2960 2961 2961 2961 2967 2970 2974 2977 2981 2987 2991 2995 3002 3008 3013 3018 3023 3026 3030 3032 3037 3040 3040 3041 3042 3042 3040 3042 3044 3044 3043 3043
3015 3011 3007 3003 3001 2995 2990 2984 2974 2966 2966 2968 2965 2958 2957 2958 2964 2967 2970 2976 2980 2985 2993 2997 3003 3008 3013 3017 3020 3023 3027 3028 3031 3032 3034 3032 3032 3031 3033 3032 3032 3032 3032
3020 3016 3013 3010 3006 3002 2998 2993 2989 2984 2980 2979 2972 2966 2959 2958 2961 2970 2966 2973 2979 2988 2991 2995 3002 3007 3010 3013 3017 3019 3023 3025 3026 3027 3026 3025 3027 3025 3024 3024 3025 3024 3024
3023 3020 3017 3015 3013 3010 3005 3003 2999 2995 2991 2988 2984 2978 2973 2969 2967 2970 2982 2985 2988 2993 2996 2998 3002 3005 3008 3010 3012 3015 3016 3017 3018 3018 3018 3018 3018 3018 3017 3015 3014 3014 3012
3027 3024 3022 3019 3017 3014 3010 3010 3008 3004 3000 2997 2995 2994 2993 2993 2992 2992 2993 2994 2996 2998 3000 3002 3004 3007 3009 3011 3012 3012 3011 3012 3012 3013 3012 3012 3011 3009 3007 3006 3004 3002 3000
3030 3027 3025 3023 3021 3017 3014 3013 3011 3009 3005 3002 3000 2999 2998 2998 2998 2998 2998 2998 2999 3000 3000 3002 3003 3004 3006 3007 3007 3008 3007 3007 3005 3005 3004 3003 3002 3000 2999 2996 2992 2990 2988
3032 3030 3027 3025 3022 3020 3018 3016 3014 3011 3008 3005 3004 3004 3003 3001 3001 3001 3001 3001 3001 3001 3002 3002 3002 3002 3002 3002 3002 3002 3002 3001 2999 2997 2996 2994 2992 2989 2987 2985 2982 2979 2978
3032 3030 3028 3024 3022 3021 3020 3018 3016 3014 3011 3008 3007 3006 3005 3004 3003 3003 3002 3001 3001 3001 3000 3000 2999 2999 2999 2998 2997 2996 2995 2993 2991 2989 2987 2984 2982 2979 2975 2973 2970 2968 2966
3031 3029 3027 3025 3023 3021 3020 3018 3016 3014 3011 3009 3008 3006 3005 3004 3003 3003 3002 3001 3000 2999 2999 2998 2997 2996 2994 2992 2991 2990 2988 2986 2983 2980 2977 2975 2971 2968 2965 2961 2958 2955 2953
3029 3028 3026 3025 3023 3022 3020 3018 3016 3013 3011 3009 3008 3006 3005 3004 3003 3001 3000 2998 2997 2996 2995 2993 2992 2990 2989 2987 2984 2981 2978 2975 2972 2969 2966 2963 2959 2956 2952 2949 2946 2944 2943
3030 3028 3026 3024 3022 3021 3019 3017 3015 3012 3010 3009 3007 3005 3004 3003 3001 3000 2998 2996 2995 2993 2991 2989 2987 2985 2983 2980 2976 2973 2969 2965 2961 2957 2954 2951 2948 2944 2941 2938 2936 2933 2931